{"data":{"norad_id":57370,"epoch":"2026-09-20T07:40:10.431552Z","epoch_age_seconds":139828,"freshness":"FRESH","line1":"1 57370U 23099AU  26263.31956518  .00000048  00000+0  11272-4 0  9990","line2":"2 57370  43.0010 222.6574 0000645 254.2983 105.7797 15.27573964175961","mean_motion":15.27573964,"eccentricity":6.45e-5,"inclination_deg":43.001,"raan_deg":222.6574,"arg_perigee_deg":254.2983,"mean_anomaly_deg":105.7797,"bstar":1.1272e-5,"rev_number":17596,"period_min":94.267121195841,"perigee_km":482.62462238564,"apogee_km":483.50971772357,"semimajor_km":6861.2041700546,"source":"CELESTRAK","updated_at":"2026-09-21T09:00:33.619803Z"}}